TimeMST,TemperatureF,Dew PointF,Humidity,Sea Level PressureIn,VisibilityMPH,Wind Direction,Wind SpeedMPH,Gust SpeedMPH,PrecipitationIn,Events,Conditions,WindDirDegrees,DateUTC
12:56 AM,70.0,55.0,59,29.93,10.0,East,11.5,-,N/A,,Scattered Clouds,80,2013-07-18 07:56:00
1:56 AM,68.0,57.0,68,29.92,10.0,NE,4.6,-,N/A,,Clear,40,2013-07-18 08:56:00
2:56 AM,66.0,57.0,73,29.91,10.0,ENE,10.4,-,N/A,,Clear,70,2013-07-18 09:56:00
3:56 AM,64.0,57.0,78,29.92,10.0,NE,8.1,-,N/A,,Clear,50,2013-07-18 10:56:00
4:56 AM,63.0,57.0,81,29.93,10.0,ENE,4.6,-,N/A,,Clear,60,2013-07-18 11:56:00
5:56 AM,63.0,57.0,81,29.93,10.0,ENE,8.1,-,N/A,,Clear,60,2013-07-18 12:56:00
7:56 AM,71.1,55.9,59,29.96,10.0,East,15.0,-,N/A,,Clear,100,2013-07-18 14:56:00
8:56 AM,73.0,55.9,55,29.95,10.0,East,15.0,-,N/A,,Clear,90,2013-07-18 15:56:00
9:56 AM,75.0,55.9,51,30.20,10.0,East,17.3,-,N/A,,Clear,80,2013-07-18 16:56:00
10:56 AM,78.1,55.0,45,29.91,10.0,East,17.3,24.2,N/A,,Clear,80,2013-07-18 17:56:00
12:56 PM,81.0,54.0,39,29.88,10.0,East,15.0,20.7,N/A,,Partly Cloudy,80,2013-07-18 19:56:00
1:56 PM,80.1,54.0,40,29.86,10.0,East,12.7,-,N/A,,Unknown,80,2013-07-18 20:56:00
2:56 PM,79.0,55.0,44,29.85,10.0,ESE,10.4,-,N/A,,Scattered Clouds,110,2013-07-18 21:56:00
3:56 PM,81.0,55.0,41,29.83,10.0,ENE,15.0,18.4,N/A,,Clear,70,2013-07-18 22:56:00
4:56 PM,79.0,55.0,44,29.83,10.0,East,13.8,-,N/A,,Partly Cloudy,80,2013-07-18 23:56:00
5:56 PM,77.0,55.0,47,29.85,10.0,East,21.9,-,0.00,,Clear,80,2013-07-19 00:56:00
6:56 PM,75.0,54.0,48,29.86,10.0,East,12.7,-,N/A,,Partly Cloudy,100,2013-07-19 01:56:00
7:56 PM,73.9,55.0,52,29.86,10.0,East,17.3,-,N/A,,Overcast,100,2013-07-19 02:56:00
8:56 PM,72.0,57.0,59,29.88,10.0,East,13.8,20.7,N/A,,Scattered Clouds,80,2013-07-19 03:56:00
9:56 PM,71.1,57.9,63,29.89,10.0,ESE,13.8,-,N/A,,Scattered Clouds,120,2013-07-19 04:56:00
10:56 PM,70.0,57.0,63,29.89,10.0,SE,10.4,-,N/A,,Overcast,130,2013-07-19 05:56:00
11:56 PM,70.0,54.0,57,29.88,10.0,SSE,3.5,-,N/A,,Clear,160,2013-07-19 06:56:00